TimeMDT,TemperatureF,Dew PointF,Humidity,Sea Level PressureIn,VisibilityMPH,Wind Direction,Wind SpeedMPH,Gust SpeedMPH,PrecipitationIn,Events,Conditions,WindDirDegrees,DateUTC
12:54 AM,34.0,26.1,73,29.62,10.0,ENE,3.5,-,N/A,,Overcast,60,2013-03-17 06:54:00
1:54 AM,34.0,27.0,75,29.57,10.0,South,5.8,-,N/A,,Overcast,190,2013-03-17 07:54:00
2:54 AM,37.0,28.9,73,29.53,10.0,ESE,5.8,-,0.00,Rain,Light Rain,120,2013-03-17 08:54:00
3:10 AM,37.4,28.4,70,29.51,10.0,SSE,4.6,-,0.00,Rain,Light Rain,160,2013-03-17 09:10:00
3:54 AM,36.0,30.9,82,29.51,10.0,Calm,Calm,-,0.02,Rain,Light Rain,0,2013-03-17 09:54:00
4:22 AM,33.8,32.0,93,29.48,3.0,West,3.5,-,0.01,Snow,Light Snow,260,2013-03-17 10:22:00
4:31 AM,32.0,30.2,93,29.48,2.0,West,4.6,-,0.02,Snow,Light Snow,270,2013-03-17 10:31:00
4:33 AM,32.0,30.2,93,29.48,2.0,West,4.6,-,0.03,Snow,Light Snow,260,2013-03-17 10:33:00
4:40 AM,32.0,30.2,93,29.48,1.8,West,5.8,-,0.03,Snow,Light Snow,260,2013-03-17 10:40:00
4:47 AM,32.0,30.2,93,29.48,2.0,West,4.6,-,0.04,Snow,Light Snow,260,2013-03-17 10:47:00
4:51 AM,32.0,30.2,93,29.48,3.0,WSW,5.8,-,0.04,Snow,Light Snow,250,2013-03-17 10:51:00
4:54 AM,32.0,30.9,96,29.52,4.0,WSW,5.8,-,0.04,Snow,Light Snow,240,2013-03-17 10:54:00
5:22 AM,32.0,30.2,93,29.47,2.5,WSW,8.1,-,0.01,Snow,Light Snow,240,2013-03-17 11:22:00
5:37 AM,32.0,32.0,100,29.47,3.0,WSW,5.8,-,0.01,Snow,Light Snow,240,2013-03-17 11:37:00
5:54 AM,32.0,30.9,96,29.51,5.0,SW,8.1,-,0.02,Snow,Light Snow,230,2013-03-17 11:54:00
6:54 AM,33.1,30.9,92,29.48,10.0,SSW,9.2,-,0.00,,Overcast,200,2013-03-17 12:54:00
7:54 AM,34.0,28.9,82,29.49,10.0,West,9.2,-,N/A,,Overcast,270,2013-03-17 13:54:00
8:54 AM,34.0,28.0,79,29.52,10.0,WNW,17.3,26.5,N/A,,Overcast,300,2013-03-17 14:54:00
9:54 AM,32.0,25.0,75,29.57,10.0,NW,28.8,40.3,N/A,,Overcast,310,2013-03-17 15:54:00
10:54 AM,30.9,21.0,67,29.61,10.0,NW,19.6,33.4,N/A,,Overcast,320,2013-03-17 16:54:00
11:26 AM,28.4,24.8,86,29.58,10.0,NNW,12.7,19.6,N/A,,Overcast,330,2013-03-17 17:26:00
11:54 AM,27.0,21.9,81,29.68,10.0,NNW,12.7,28.8,N/A,,Overcast,340,2013-03-17 17:54:00
12:45 PM,26.6,21.2,80,29.61,10.0,NW,19.6,26.5,N/A,,Overcast,320,2013-03-17 18:45:00
12:54 PM,25.0,19.9,81,29.70,10.0,NW,19.6,27.6,N/A,,Overcast,320,2013-03-17 18:54:00
1:32 PM,24.8,19.4,80,29.64,10.0,NW,17.3,27.6,N/A,,Mostly Cloudy,320,2013-03-17 19:32:00
1:54 PM,23.0,18.0,81,29.73,10.0,NW,21.9,29.9,N/A,,Mostly Cloudy,320,2013-03-17 19:54:00
2:54 PM,21.0,15.1,78,29.76,10.0,NNW,20.7,29.9,N/A,,Mostly Cloudy,330,2013-03-17 20:54:00
3:29 PM,19.4,14.0,80,29.69,10.0,NW,18.4,25.3,N/A,,Scattered Clouds,320,2013-03-17 21:29:00
3:54 PM,19.0,12.9,77,29.79,10.0,NW,19.6,27.6,N/A,,Clear,320,2013-03-17 21:54:00
4:54 PM,19.0,12.0,74,29.84,10.0,NW,13.8,24.2,N/A,,Clear,320,2013-03-17 22:54:00
5:41 PM,17.6,10.4,73,29.77,9.0,NW,13.8,23.0,N/A,,Mostly Cloudy,320,2013-03-17 23:41:00
5:54 PM,17.1,10.9,77,29.90,10.0,NW,11.5,18.4,N/A,,Overcast,320,2013-03-17 23:54:00
6:54 PM,15.1,10.0,80,29.94,2.5,NW,13.8,19.6,0.00,Snow,Light Snow,310,2013-03-18 00:54:00
7:01 PM,14.0,10.4,86,29.82,1.8,NW,15.0,21.9,0.00,Snow,Light Snow,310,2013-03-18 01:01:00
7:21 PM,12.2,8.6,85,29.83,0.8,NW,11.5,19.6,0.00,Snow,Light Snow,310,2013-03-18 01:21:00
7:29 PM,12.2,8.6,85,29.84,1.8,NW,9.2,19.6,0.00,Snow,Light Snow,310,2013-03-18 01:29:00
7:35 PM,12.2,8.6,85,29.84,3.0,NW,13.8,19.6,0.00,Snow,Light Snow,310,2013-03-18 01:35:00
7:43 PM,12.2,8.6,85,29.85,2.5,NW,13.8,20.7,0.00,Snow,Light Snow,320,2013-03-18 01:43:00
7:54 PM,12.0,9.0,88,29.98,2.0,NW,11.5,17.3,0.00,Snow,Light Snow,320,2013-03-18 01:54:00
8:02 PM,12.2,8.6,85,29.86,1.8,NW,11.5,19.6,0.00,Snow,Light Snow,310,2013-03-18 02:02:00
8:10 PM,12.2,8.6,85,29.86,2.5,NW,13.8,20.7,0.00,Snow,Light Snow,320,2013-03-18 02:10:00
8:17 PM,12.2,8.6,85,29.86,2.5,NNW,9.2,20.7,0.00,Snow,Light Snow,330,2013-03-18 02:17:00
8:23 PM,12.2,8.6,85,29.87,4.0,NW,13.8,20.7,0.00,Snow,Light Snow,320,2013-03-18 02:23:00
8:54 PM,12.0,8.1,84,30.00,7.0,NW,10.4,19.6,0.00,Snow,Light Snow,320,2013-03-18 02:54:00
9:17 PM,10.4,6.8,85,29.88,5.0,NNW,11.5,19.6,0.00,Snow,Light Snow,330,2013-03-18 03:17:00
9:52 PM,10.4,6.8,85,29.89,10.0,NNW,12.7,18.4,0.00,,Overcast,330,2013-03-18 03:52:00
9:54 PM,10.9,7.0,84,30.02,10.0,NNW,11.5,18.4,0.00,,Overcast,330,2013-03-18 03:54:00
10:25 PM,10.4,6.8,85,29.90,10.0,WNW,13.8,-,N/A,,Mostly Cloudy,300,2013-03-18 04:25:00
10:54 PM,10.9,5.0,77,30.04,10.0,WNW,11.5,-,N/A,,Scattered Clouds,290,2013-03-18 04:54:00
11:54 PM,9.0,5.0,84,30.06,10.0,West,8.1,-,N/A,,Clear,280,2013-03-18 05:54:00